• In Russia
  • List of Countries
  • For 7 days
  • Water Temperature
  • Satellite Maps
  • Weather Map
  • Weather Widgets
  • user-avatar
    Login

    Hourly Weather Stepanakert

    Today, 30 March, Thursday

    Time Temperature Precipitation Wind Pressure Humidity
    00:00 +5°C° 0 mm 1 mps 695 mmHg 81%
    01:00 +4°C° 0 mm 1 mps 695 mmHg 84%
    02:00 +4°C° 0 mm 1 mps 695 mmHg 86%
    03:00 +3°C° 0 mm 1 mps 695 mmHg 88%
    04:00 +3°C° 0 mm 1 mps 695 mmHg 88%
    05:00 +3°C° 0 mm 1 mps 695 mmHg 89%
    06:00 +3°C° 0 mm 1 mps 695 mmHg 89%
    07:00 +5°C° 0 mm 1 mps 696 mmHg 78%
    08:00 +8°C° 0 mm 1 mps 696 mmHg 68%
    09:00 +10°C° 0 mm 1 mps 696 mmHg 57%
    10:00 +12°C° 0 mm 2 mps 696 mmHg 53%
    11:00 +13°C° 0 mm 2 mps 695 mmHg 50%
    12:00 +14°C° 0 mm 2 mps 695 mmHg 46%
    13:00 +15°C° 0 mm 2 mps 694 mmHg 46%
    14:00 +15°C° 0 mm 2 mps 694 mmHg 46%
    15:00 +15°C° 0 mm 2 mps 693 mmHg 46%
    16:00 +13°C° 0 mm 2 mps 693 mmHg 55%
    17:00 +12°C° 0 mm 1 mps 692 mmHg 63%
    18:00 +10°C° 0 mm 1 mps 692 mmHg 72%
    19:00 +9°C° 0 mm 1 mps 692 mmHg 73%
    20:00 +8°C° 0 mm 1 mps 692 mmHg 75%
    21:00 +7°C° 0 mm 1 mps 692 mmHg 76%
    22:00 +6°C° 0 mm 2 mps 692 mmHg 73%
    23:00 +6°C° 0 mm 2 mps 692 mmHg 71%

    Tomorrow, 31 March, Friday

    Time Temperature Precipitation Wind Pressure Humidity
    00:00 +6°C° 0 mm 2 mps 692 mmHg 68%
    01:00 +6°C° 0 mm 2 mps 692 mmHg 65%
    02:00 +6°C° 0 mm 2 mps 692 mmHg 63%
    03:00 +5°C° 0 mm 2 mps 692 mmHg 60%
    04:00 +5°C° 0 mm 2 mps 692 mmHg 59%
    05:00 +5°C° 0 mm 2 mps 692 mmHg 59%
    06:00 +5°C° 0 mm 2 mps 692 mmHg 58%
    07:00 +9°C° 0 mm 1 mps 693 mmHg 52%
    08:00 +11°C° 0 mm 1 mps 693 mmHg 46%
    09:00 +14°C° 0 mm 1 mps 694 mmHg 40%
    10:00 +15°C° 0 mm 2 mps 694 mmHg 40%
    11:00 +16°C° 0 mm 2 mps 694 mmHg 39%
    12:00 +16°C° 0 mm 3 mps 694 mmHg 38%
    13:00 +16°C° 0.1 mm 3 mps 693 mmHg 42%
    14:00 +15°C° 0.1 mm 4 mps 693 mmHg 45%
    15:00 +14°C° 0.1 mm 4 mps 693 mmHg 49%
    16:00 +12°C° 0.4 mm 4 mps 693 mmHg 59%
    17:00 +10°C° 0.4 mm 5 mps 693 mmHg 69%
    18:00 +8°C° 0.4 mm 5 mps 693 mmHg 79%
    19:00 +7°C° 0.7 mm 5 mps 694 mmHg 82%
    20:00 +6°C° 0.7 mm 4 mps 694 mmHg 85%
    21:00 +5°C° 0.7 mm 4 mps 695 mmHg 87%
    22:00 +4°C° 0.5 mm 4 mps 695 mmHg 88%
    23:00 +4°C° 0.5 mm 4 mps 695 mmHg 89%

    Day after tomorrow, 1 April, Saturday

    Time Temperature Precipitation Wind Pressure Humidity
    00:00 +3°C° 0.5 mm 4 mps 695 mmHg 89%
    01:00 +3°C° 0.2 mm 3 mps 694 mmHg 89%
    02:00 +2°C° 0.2 mm 3 mps 694 mmHg 89%
    03:00 +2°C° 0.2 mm 3 mps 693 mmHg 89%
    04:00 +1°C° 0.2 mm 3 mps 694 mmHg 89%
    05:00 +1°C° 0.2 mm 3 mps 694 mmHg 89%
    06:00 +2°C° 0.2 mm 2 mps 694 mmHg 89%
    07:00 +2°C° 0.4 mm 2 mps 694 mmHg 87%
    08:00 +3°C° 0.4 mm 2 mps 694 mmHg 85%
    09:00 +4°C° 0.4 mm 2 mps 694 mmHg 83%
    10:00 +4°C° 0.4 mm 2 mps 694 mmHg 81%
    11:00 +5°C° 0.4 mm 2 mps 694 mmHg 80%
    12:00 +5°C° 0.4 mm 2 mps 694 mmHg 79%
    13:00 +5°C° 0.2 mm 2 mps 693 mmHg 79%
    14:00 +6°C° 0.2 mm 2 mps 693 mmHg 79%
    15:00 +6°C° 0.2 mm 2 mps 692 mmHg 78%
    16:00 +7°C° 0.2 mm 1 mps 692 mmHg 82%
    17:00 +6°C° 0.2 mm 1 mps 692 mmHg 85%
    18:00 +5°C° 0.2 mm 1 mps 692 mmHg 88%
    19:00 +5°C° 0.2 mm 1 mps 693 mmHg 89%
    20:00 +5°C° 0.2 mm 1 mps 693 mmHg 90%
    21:00 +4°C° 0.2 mm 1 mps 694 mmHg 91%
    22:00 +4°C° 0.2 mm 1 mps 694 mmHg 92%
    23:00 +4°C° 0.2 mm 1 mps 694 mmHg 93%

    2 April, Sunday

    Time Temperature Precipitation Wind Pressure Humidity
    00:00 +4°C° 0.2 mm 1 mps 694 mmHg 93%
    01:00 +3°C° 0.2 mm 1 mps 694 mmHg 94%
    02:00 +3°C° 0.2 mm 1 mps 694 mmHg 95%
    03:00 +3°C° 0.2 mm 1 mps 694 mmHg 96%
    04:00 +3°C° 0.2 mm 1 mps 694 mmHg 95%
    05:00 +3°C° 0.2 mm 1 mps 695 mmHg 95%
    06:00 +3°C° 0.2 mm 1 mps 695 mmHg 95%
    07:00 +4°C° 0.5 mm 1 mps 696 mmHg 92%
    08:00 +3°C° 0.5 mm 2 mps 696 mmHg 89%
    09:00 +4°C° 0.5 mm 2 mps 697 mmHg 86%
    10:00 +4°C° 0.5 mm 2 mps 697 mmHg 84%
    11:00 +4°C° 0.5 mm 3 mps 697 mmHg 82%
    12:00 +4°C° 0.5 mm 3 mps 697 mmHg 81%
    13:00 +4°C° 0.4 mm 3 mps 697 mmHg 80%
    14:00 +4°C° 0.4 mm 3 mps 697 mmHg 79%
    15:00 +4°C° 0.4 mm 3 mps 697 mmHg 78%
    16:00 +4°C° 0.2 mm 3 mps 697 mmHg 80%
    17:00 +4°C° 0.2 mm 2 mps 697 mmHg 83%
    18:00 +4°C° 0.2 mm 2 mps 698 mmHg 85%
    19:00 +3°C° 0.1 mm 2 mps 698 mmHg 86%
    20:00 +2°C° 0.1 mm 2 mps 698 mmHg 87%
    21:00 +2°C° 0.1 mm 1 mps 698 mmHg 88%
    22:00 +2°C° 0 mm 1 mps 698 mmHg 88%
    23:00 +1°C° 0 mm 1 mps 698 mmHg 87%

    3 April, Monday

    Time Temperature Precipitation Wind Pressure Humidity
    00:00 +1°C° 0 mm 1 mps 698 mmHg 86%
    01:00 +1°C° 0 mm 1 mps 698 mmHg 86%
    02:00 0°C° 0 mm 1 mps 697 mmHg 86%
    03:00 0°C° 0 mm 1 mps 697 mmHg 86%
    04:00 0°C° 0 mm 1 mps 697 mmHg 86%
    05:00 0°C° 0 mm 1 mps 697 mmHg 85%
    06:00 0°C° 0 mm 1 mps 697 mmHg 85%
    07:00 +2°C° 0 mm 1 mps 697 mmHg 79%
    08:00 +4°C° 0 mm 1 mps 697 mmHg 72%
    09:00 +7°C° 0 mm 1 mps 698 mmHg 65%
    10:00 +8°C° 0 mm 1 mps 697 mmHg 63%
    11:00 +9°C° 0 mm 1 mps 697 mmHg 61%
    12:00 +10°C° 0 mm 1 mps 697 mmHg 58%
    13:00 +10°C° 0 mm 1 mps 696 mmHg 58%
    14:00 +10°C° 0 mm 1 mps 696 mmHg 57%
    15:00 +10°C° 0 mm 2 mps 695 mmHg 57%
    16:00 +9°C° 0 mm 1 mps 695 mmHg 64%
    17:00 +8°C° 0 mm 1 mps 695 mmHg 70%
    18:00 +6°C° 0 mm 1 mps 695 mmHg 77%
    19:00 +5°C° 0 mm 1 mps 695 mmHg 79%
    20:00 +4°C° 0 mm 1 mps 695 mmHg 81%
    21:00 +3°C° 0 mm 1 mps 695 mmHg 83%
    22:00 +3°C° 0 mm 1 mps 695 mmHg 82%
    23:00 +3°C° 0 mm 1 mps 695 mmHg 81%

    4 April, Tuesday

    Time Temperature Precipitation Wind Pressure Humidity
    00:00 +3°C° 0 mm 1 mps 695 mmHg 80%
    01:00 +2°C° 0 mm 2 mps 695 mmHg 78%
    02:00 +1°C° 0 mm 2 mps 695 mmHg 77%
    03:00 +1°C° 0 mm 2 mps 695 mmHg 76%
    04:00 +1°C° 0 mm 2 mps 695 mmHg 74%
    05:00 +1°C° 0 mm 2 mps 695 mmHg 72%
    06:00 +1°C° 0 mm 2 mps 695 mmHg 70%
    07:00 +5°C° 0 mm 1 mps 695 mmHg 62%
    08:00 +8°C° 0 mm 1 mps 696 mmHg 55%
    09:00 +11°C° 0 mm 1 mps 696 mmHg 47%
    10:00 +12°C° 0 mm 1 mps 696 mmHg 45%
    11:00 +13°C° 0 mm 1 mps 696 mmHg 42%
    12:00 +14°C° 0 mm 1 mps 696 mmHg 40%
    13:00 +15°C° 0 mm 1 mps 695 mmHg 40%
    14:00 +15°C° 0 mm 1 mps 695 mmHg 40%
    15:00 +15°C° 0 mm 1 mps 695 mmHg 40%
    16:00 +13°C° 0 mm 1 mps 695 mmHg 48%
    17:00 +11°C° 0 mm 1 mps 695 mmHg 56%
    18:00 +9°C° 0 mm 1 mps 694 mmHg 63%
    19:00 +8°C° 0 mm 1 mps 695 mmHg 65%
    20:00 +7°C° 0 mm 1 mps 695 mmHg 67%
    21:00 +6°C° 0 mm 1 mps 695 mmHg 69%
    22:00 +6°C° 0 mm 1 mps 695 mmHg 69%
    23:00 +6°C° 0 mm 1 mps 695 mmHg 68%
    Show more